TimePST,TemperatureF,Dew PointF,Humidity,Sea Level PressureIn,VisibilityMPH,Wind Direction,Wind SpeedMPH,Gust SpeedMPH,PrecipitationIn,Events,Conditions,WindDirDegrees,DateUTC
12:53 AM,27.0,25.0,92,30.33,10.0,Calm,Calm,-,N/A,,Clear,0,2013-02-16 08:53:00
1:53 AM,26.1,24.1,92,30.31,9.0,Calm,Calm,-,N/A,,Clear,0,2013-02-16 09:53:00
2:53 AM,26.1,23.0,88,30.29,9.0,East,3.5,-,N/A,,Clear,80,2013-02-16 10:53:00
3:53 AM,26.1,23.0,88,30.28,10.0,Calm,Calm,-,N/A,,Clear,0,2013-02-16 11:53:00
4:53 AM,24.1,21.9,91,30.29,10.0,Calm,Calm,-,N/A,,Clear,0,2013-02-16 12:53:00
5:53 AM,26.1,23.0,88,30.29,10.0,Calm,Calm,-,N/A,,Clear,0,2013-02-16 13:53:00
6:04 AM,23.0,21.2,93,30.26,7.0,North,3.5,-,N/A,,Clear,10,2013-02-16 14:04:00
6:53 AM,23.0,21.0,92,30.31,7.0,Calm,Calm,-,N/A,,Clear,0,2013-02-16 14:53:00
7:53 AM,28.0,25.0,88,30.30,10.0,Calm,Calm,-,N/A,,Partly Cloudy,0,2013-02-16 15:53:00
8:53 AM,34.0,28.9,82,30.30,10.0,Calm,Calm,-,N/A,,Scattered Clouds,0,2013-02-16 16:53:00
9:53 AM,37.9,30.0,73,30.28,10.0,SE,4.6,-,N/A,,Scattered Clouds,140,2013-02-16 17:53:00
10:53 AM,43.0,32.0,65,30.25,10.0,Calm,Calm,-,N/A,,Overcast,0,2013-02-16 18:53:00
11:53 AM,48.0,30.0,50,30.20,10.0,SE,3.5,-,N/A,,Mostly Cloudy,140,2013-02-16 19:53:00
12:53 PM,53.1,28.9,40,30.17,10.0,WSW,9.2,16.1,N/A,,Scattered Clouds,250,2013-02-16 20:53:00
1:53 PM,54.0,28.0,37,30.14,10.0,WSW,12.7,19.6,N/A,,Scattered Clouds,240,2013-02-16 21:53:00
2:53 PM,55.0,30.0,38,30.11,10.0,West,11.5,23.0,N/A,,Scattered Clouds,260,2013-02-16 22:53:00
3:53 PM,53.1,30.0,41,30.11,10.0,WNW,12.7,-,N/A,,Scattered Clouds,300,2013-02-16 23:53:00
4:53 PM,50.0,30.9,48,30.12,10.0,NW,15.0,-,N/A,,Scattered Clouds,310,2013-02-17 00:53:00
5:53 PM,44.1,27.0,51,30.12,10.0,West,12.7,-,N/A,,Scattered Clouds,280,2013-02-17 01:53:00
6:53 PM,41.0,28.9,62,30.14,10.0,NNW,9.2,-,N/A,,Scattered Clouds,340,2013-02-17 02:53:00
7:53 PM,39.0,25.0,57,30.14,10.0,NNW,17.3,-,N/A,,Scattered Clouds,330,2013-02-17 03:53:00
8:53 PM,37.0,24.1,59,30.13,10.0,NNW,12.7,-,N/A,,Partly Cloudy,330,2013-02-17 04:53:00
9:53 PM,35.1,23.0,61,30.15,10.0,WNW,6.9,-,N/A,,Clear,290,2013-02-17 05:53:00
10:53 PM,33.1,23.0,66,30.14,10.0,NW,10.4,-,N/A,,Clear,310,2013-02-17 06:53:00
11:53 PM,30.0,21.9,72,30.14,10.0,West,4.6,-,N/A,,Clear,280,2013-02-17 07:53:00